Theta_e
346 346 345 344 343 346 347 347 347 347 348 349 350 351 350 352 352 350 347 352 354 355 354 352 351 351 351 350 350 348 347 347 346 346 345 345 345 345 344 344 344 344 344
348 345 345 344 344 346 347 348 346 345 345 346 348 350 351 351 352 352 349 348 354 355 356 355 353 353 353 352 351 350 350 350 348 348 348 347 346 345 344 344 344 344 344
349 347 344 345 345 348 348 349 348 347 345 345 347 349 351 351 351 351 350 349 352 355 356 356 356 355 354 353 352 352 352 351 350 349 349 348 348 348 346 345 345 345 345
351 349 345 344 346 348 349 348 348 346 346 345 343 346 347 351 350 349 349 350 350 351 355 356 356 356 356 356 355 355 354 352 351 350 349 349 348 348 348 347 346 346 347
350 349 347 346 349 346 346 346 345 346 345 346 344 345 348 349 350 348 347 347 348 351 353 354 354 354 355 356 357 356 355 353 351 350 351 350 350 349 349 349 349 348 348
346 348 348 349 349 346 346 346 346 346 345 344 342 343 346 347 349 348 348 347 347 350 351 355 359 352 353 356 356 356 356 355 353 352 350 349 349 350 350 349 349 348 347
346 348 346 348 350 347 347 348 347 346 346 346 341 342 343 344 344 346 347 347 347 349 351 354 357 354 353 352 351 352 352 354 354 353 350 348 349 350 349 349 349 348 346
347 349 348 348 346 341 339 339 339 334 333 336 331 334 330 336 340 343 345 346 347 349 348 350 351 353 352 351 350 349 349 351 351 352 351 348 348 349 349 349 349 347 346
340 338 339 341 342 339 337 338 336 333 330 331 330 327 324 322 327 339 339 341 343 344 347 348 350 351 351 350 348 347 347 348 348 349 349 348 348 349 348 347 346 346 345
330 332 336 337 337 337 335 334 336 336 332 327 331 331 331 332 324 323 335 336 336 337 343 342 347 347 347 346 346 346 344 344 345 347 348 348 348 349 348 347 345 344 343
320 321 323 325 326 331 331 331 331 330 330 328 329 331 332 331 332 329 324 330 333 336 336 336 342 343 344 344 344 343 341 340 341 343 345 346 346 346 346 345 344 341 339
316 317 319 321 321 320 321 322 325 328 329 328 328 327 328 326 327 328 325 326 330 335 337 338 338 340 341 341 340 341 336 336 336 336 339 342 344 344 344 343 342 339 338
316 317 320 321 320 321 320 320 321 320 318 319 321 325 331 330 332 331 327 324 323 333 330 333 337 338 338 340 337 338 337 333 332 332 333 336 339 340 340 339 337 336 335
313 315 316 317 317 317 318 319 319 319 318 315 314 314 315 318 319 324 326 323 320 322 326 327 333 335 336 337 336 335 334 332 330 329 329 331 333 335 335 334 333 331 329
313 314 314 314 314 314 315 315 314 314 315 314 313 315 314 314 315 316 317 316 316 316 321 327 327 336 338 335 334 333 331 331 331 328 327 327 328 329 329 328 327 326 326
313 313 312 313 312 313 312 311 310 312 313 312 312 312 311 311 313 314 314 314 314 312 310 324 325 331 335 335 333 332 329 331 329 328 327 326 325 326 325 323 322 320 320
312 312 311 311 310 310 311 311 310 310 309 309 308 307 308 309 309 310 311 312 313 310 308 312 319 322 324 327 327 330 330 328 329 327 327 325 323 323 321 318 317 316 316
311 311 310 309 309 309 309 308 307 307 307 306 307 308 307 308 308 309 309 309 310 312 310 306 312 315 317 322 323 326 327 329 328 328 326 324 322 319 317 315 314 313 313
310 310 309 309 308 308 307 308 307 306 306 306 307 307 307 308 307 306 307 307 308 309 311 310 310 315 316 321 319 318 319 321 323 327 324 323 321 317 314 313 312 311 310
310 309 309 308 308 308 308 307 306 306 307 307 308 308 308 308 308 308 309 307 308 308 309 306 306 311 315 316 316 314 309 313 316 320 323 319 316 315 313 311 310 310 309
310 310 309 308 308 308 307 307 308 307 307 308 309 309 309 308 308 308 309 309 308 307 308 307 305 306 310 309 309 310 308 306 303 308 312 312 312 311 311 310 310 310 309
310 309 309 308 308 307 301 302 305 308 307 308 307 308 309 307 308 306 308 308 308 307 307 305 306 306 308 310 311 307 302 302 298 305 304 303 306 304 306 308 309 309 309
311 310 308 309 308 309 302 301 302 308 307 307 307 307 306 305 305 307 307 306 307 307 307 306 303 305 307 308 307 304 302 303 301 303 302 299 304 302 307 309 307 306 305
310 309 309 309 309 308 303 301 302 306 307 307 307 307 306 303 305 303 303 303 303 305 306 308 307 305 306 306 307 305 303 303 301 303 305 298 303 302 307 310 307 307 306
309 308 309 308 308 309 303 301 302 306 306 306 307 307 305 305 303 301 302 302 302 302 307 306 305 303 302 303 305 305 301 300 298 300 306 302 301 303 305 305 308 306 305
309 308 308 309 307 309 302 300 302 306 306 305 308 306 303 303 299 298 305 303 301 302 304 304 305 306 306 306 306 306 304 301 300 299 305 305 303 303 302 307 309 310 310
Wind_Speed
6 5 4 4 4 4 5 5 5 5 6 7 6 7 7 7 7 5 4 13 13 13 14 14 14 14 13 13 12 12 11 11 11 11 10 9 10 10 10 9 8 7 6
5 5 5 5 5 5 5 5 5 6 6 6 7 8 8 7 8 7 6 8 13 13 14 15 16 16 16 15 14 13 12 12 12 11 11 11 10 10 11 11 10 10 9
7 6 6 6 5 5 7 5 6 6 6 6 9 8 7 9 8 9 8 7 10 15 15 15 16 16 16 16 16 16 14 13 13 12 12 12 12 11 12 12 11 11 11
8 7 6 6 5 5 5 5 5 6 6 7 8 8 7 7 10 10 8 8 9 9 15 19 18 18 17 17 17 17 16 15 15 14 13 13 13 12 12 12 13 13 11
9 8 7 6 5 5 6 6 6 6 7 7 7 7 7 7 8 8 11 12 11 10 9 13 20 18 18 17 18 17 16 17 16 16 16 16 15 15 14 14 13 13 12
10 9 8 8 6 6 6 6 7 5 6 5 7 6 6 7 8 9 11 10 11 13 14 14 9 12 16 15 16 15 15 17 18 18 18 18 17 16 16 15 15 14 14
9 10 8 6 4 5 7 7 5 4 1 1 4 4 5 6 8 8 9 9 12 11 11 12 8 6 8 13 10 10 12 12 16 18 17 17 17 18 18 17 16 14 14
3 4 4 4 4 4 5 4 2 1 2 5 3 1 4 2 2 7 8 10 13 9 11 12 12 13 11 9 12 11 12 13 13 12 12 15 18 20 19 17 16 14 14
4 3 3 2 2 4 5 6 5 10 5 4 10 4 1 4 5 3 5 5 7 8 10 11 12 14 13 11 9 12 13 11 14 15 13 11 15 18 17 17 15 16 18
6 7 5 3 2 2 2 4 4 5 4 5 4 6 7 5 6 8 5 5 5 5 11 7 10 10 10 8 12 13 11 12 14 16 16 14 14 16 14 14 16 17 17
8 7 6 5 4 2 2 3 3 3 3 2 6 3 8 6 11 11 11 6 5 6 7 7 8 8 9 9 9 13 13 13 13 13 13 13 15 16 14 17 18 18 19
4 7 6 5 6 5 5 4 5 4 4 5 5 5 6 5 8 8 9 11 12 6 6 7 9 10 9 10 13 17 13 14 13 13 13 13 13 13 15 19 20 20 19
4 6 6 6 5 5 5 4 5 5 6 5 6 4 5 6 7 8 8 8 8 8 7 9 8 9 9 10 10 17 18 16 14 13 12 12 14 14 15 18 18 18 18
4 4 5 5 5 5 5 5 4 4 4 4 7 6 5 5 6 6 5 6 8 7 7 9 6 9 10 10 15 20 12 16 15 14 13 12 13 15 15 16 17 17 17
5 5 5 6 6 6 6 6 5 5 5 5 5 6 4 4 5 5 5 5 5 6 11 9 7 9 9 10 14 13 14 18 20 19 16 16 15 15 18 16 15 14 14
6 6 6 6 6 6 6 6 5 6 6 5 4 6 5 5 7 5 5 6 5 5 6 4 5 12 10 9 14 15 15 23 26 26 24 22 21 20 20 19 17 16 14
6 6 6 6 6 5 6 5 5 5 6 6 6 6 7 8 6 6 6 7 7 5 7 6 5 7 10 9 10 12 13 14 14 30 29 27 25 24 25 23 21 19 16
5 5 5 5 4 5 5 5 5 5 5 5 5 6 6 4 7 7 6 8 8 9 8 12 10 9 9 8 8 9 11 11 13 21 30 31 30 29 27 25 22 18 15
5 4 4 4 4 4 4 5 5 5 4 4 5 6 6 7 7 6 6 7 8 9 10 11 13 11 8 7 6 5 6 7 7 15 25 30 28 26 24 20 17 16 11
6 5 4 3 3 3 3 5 4 4 5 5 6 7 7 8 10 10 10 9 8 9 9 8 9 12 10 6 6 4 3 2 4 4 9 15 21 25 22 18 15 14 12
6 5 5 4 3 2 2 3 3 4 5 7 7 7 6 10 14 15 11 11 9 8 9 9 9 9 8 4 5 2 4 2 4 2 7 7 8 9 12 20 18 19 13
6 5 5 4 5 3 4 3 4 3 5 6 7 8 8 10 14 16 14 13 8 8 11 8 10 11 11 7 6 5 5 4 3 3 7 7 10 8 5 6 11 10 8
6 5 5 6 6 5 7 8 5 3 4 4 5 7 9 7 10 12 11 11 8 9 8 8 8 9 9 6 5 6 7 8 4 5 9 7 6 7 8 8 14 12 11
7 5 5 5 4 5 8 11 7 4 5 5 4 6 6 7 8 11 10 9 8 7 7 7 6 6 4 2 4 5 6 6 9 6 2 5 6 5 4 6 10 10 13
7 6 5 5 4 5 8 10 8 8 6 5 4 3 5 8 11 15 8 8 8 8 9 9 8 10 12 13 10 9 7 9 8 5 2 4 5 4 5 5 6 14 15
8 6 6 6 3 7 7 9 9 6 6 4 2 3 3 4 8 11 9 8 7 9 8 8 7 6 6 9 10 7 4 7 6 4 2 3 7 5 4 11 12 13 13
Wind_Direction
194 199 200 207 208 193 212 214 237 245 243 240 234 241 253 249 236 231 225 200 206 216 210 212 207 208 209 209 203 200 203 208 198 189 192 200 189 180 179 182 182 179 174
200 205 212 219 224 219 217 227 226 239 246 248 240 240 235 231 229 228 230 209 211 218 225 219 218 214 210 213 213 214 209 208 214 203 199 200 206 201 197 196 193 189 185
213 226 228 231 235 235 240 238 238 230 240 243 246 238 238 233 225 223 226 233 207 216 225 227 225 224 223 223 218 218 216 214 215 216 207 209 208 207 208 207 205 206 197
234 233 240 241 244 256 263 256 260 259 250 242 244 240 237 232 232 229 230 229 232 233 214 226 222 223 221 227 231 223 219 216 214 216 218 213 216 216 212 216 213 210 210
252 250 253 255 245 253 260 266 263 258 265 263 259 255 254 242 231 232 234 233 234 244 243 225 222 224 225 230 236 237 234 227 217 215 215 216 215 219 219 217 217 214 208
251 249 253 258 252 258 256 252 258 253 272 311 299 278 263 267 265 247 238 236 235 237 243 243 247 229 229 228 234 235 239 229 223 219 219 219 219 218 219 219 223 219 211
262 251 259 270 271 282 286 269 259 276 358 339 281 271 265 256 250 256 253 242 237 229 229 237 240 227 223 217 218 241 253 236 226 223 222 224 223 222 220 218 218 220 219
286 289 273 207 193 169 176 174 183 148 81 53 62 313 334 326 289 265 262 259 252 239 237 233 237 225 224 219 223 220 245 244 236 235 225 222 224 225 223 218 215 204 192
61 39 32 303 230 182 181 182 212 188 171 171 140 169 250 269 334 273 251 259 265 250 254 244 230 224 225 228 220 218 229 246 246 245 236 228 226 223 222 221 204 181 169
42 25 3 334 327 343 259 242 236 240 197 196 197 220 221 239 226 266 211 220 214 259 255 243 248 232 222 220 229 235 216 222 240 249 253 222 232 210 198 182 166 168 172
51 42 29 25 21 357 290 251 250 252 234 285 259 204 208 204 236 251 270 245 218 207 209 248 243 243 228 232 231 242 221 217 225 240 255 225 224 210 183 184 172 172 168
60 47 45 45 44 38 29 9 354 315 263 244 245 234 228 219 223 231 246 258 259 227 214 208 222 231 229 225 228 236 230 226 225 227 238 208 214 211 194 182 179 175 178
69 52 46 44 40 33 37 19 27 23 7 0 347 313 273 248 253 256 257 261 257 249 233 225 225 215 227 230 221 229 235 231 224 224 221 206 196 190 183 178 180 184 179
100 80 74 72 61 48 41 35 39 27 16 14 4 357 343 336 340 329 283 254 252 241 240 248 207 218 212 217 220 214 222 224 223 221 218 207 191 180 185 186 186 181 186
115 104 92 79 63 56 47 43 47 32 22 14 359 345 336 329 330 323 316 312 312 285 263 244 239 217 225 220 225 211 205 212 213 212 209 210 206 190 177 177 181 179 182
124 116 100 81 68 56 54 44 34 23 17 13 358 342 343 327 316 325 321 314 299 294 284 343 306 291 243 227 230 220 213 208 209 209 208 203 197 187 177 173 163 147 143
120 105 88 83 74 66 52 50 47 30 18 7 359 348 337 331 318 308 306 299 302 312 297 303 294 302 293 259 237 228 224 214 212 210 205 201 195 183 174 163 153 150 155
131 124 114 105 100 83 76 63 50 36 14 358 341 336 330 329 326 330 315 316 304 297 290 286 289 291 271 264 261 258 234 227 223 218 211 199 192 179 167 158 152 153 163
145 145 147 122 103 95 71 51 38 24 359 342 328 312 309 305 299 298 300 299 297 297 300 294 289 277 275 271 250 243 256 244 235 229 217 203 187 167 154 145 146 144 160
164 168 158 133 115 90 63 41 32 12 358 349 335 322 317 311 300 294 283 281 286 290 302 286 282 285 272 254 241 227 226 243 233 203 198 165 153 145 142 141 149 152 157
171 172 169 169 170 165 75 18 19 8 354 341 343 330 325 322 317 310 293 275 277 286 301 299 284 273 259 226 225 186 208 102 24 340 125 127 139 136 147 155 165 179 173
170 182 196 203 204 211 149 232 281 350 331 344 341 343 341 331 337 315 328 283 299 309 307 300 293 278 262 245 227 195 156 163 136 334 98 101 122 119 130 124 138 145 160
180 208 224 225 222 233 197 228 208 271 318 334 347 343 339 4 342 356 359 326 298 312 339 306 309 294 276 242 201 182 186 180 137 146 120 110 120 126 150 145 138 147 175
192 212 234 230 236 247 207 220 208 265 280 301 334 343 1 326 344 349 333 348 350 341 354 331 345 338 311 269 209 163 145 119 108 126 105 116 140 140 145 149 181 198 223
187 198 227 216 215 257 219 202 190 234 250 279 344 347 353 329 344 336 323 325 342 346 339 353 20 38 31 36 49 112 116 120 124 135 141 98 161 138 166 184 206 226 235
194 194 214 216 195 248 189 194 195 238 246 264 310 260 319 323 337 343 0 356 325 341 356 340 347 12 45 50 54 54 78 89 92 91 118 126 164 159 186 217 219 223 221